Regional Weather Roundup
Issued by NWS Green Bay, WI

Home | Current Version | Previous Version | Graphics & Text | Print | Product List | Glossary Off
Versions: 1 2 3 4 5 6 7 8 9 10 11 12 13 14 15 16 17 18 19 20 21 22 23 24 25 26 27 28 29 30 31 32 33 34 35 36 37 38 39 40 41 42 43 44 45 46 47 48 49 50

000
ASUS43 KGRB 291400
RWRGRB

NORTH-CENTRAL AND NORTHEAST WISCONSIN REGIONAL WEATHER ROUNDUP
NATIONAL WEATHER SERVICE GREEN BAY WI
900 AM CDT WED JUL 29 2015

WIZ005-009-010>012-018-019-291500-
NORTH CENTRAL WISCONSIN

CITY           SKY/WX    TMP DP  RH WIND       PRES   REMARKS
IRONWOOD       MOSUNNY   68  50  52 W26G38    29.75S
MANITOWISH WTR NOT AVBL
ARBOR VITAE    NOT AVBL
EAGLE RIVER    NOT AVBL
LAND O LAKES   NOT AVBL
RHINELANDER    SUNNY     72  50  45 W17G31    29.86F
PHILLIPS       SUNNY     68  53  58 SW13G26   29.85S
ANTIGO         NOT AVBL
TOMAHAWK       NOT AVBL
MERRILL        NOT AVBL
$$

WIZ013-073-291500-
NORTHEAST WISCONSIN

CITY           SKY/WX    TMP DP  RH WIND       PRES   REMARKS
IRON MOUNTAIN  SUNNY     74  50  42 W10G22    29.83F
MARINETTE      PTSUNNY   75  54  46 W13G20    29.85F
$$

WIZ017-030-035>037-045-291500-
CENTRAL WISCONSIN

CITY           SKY/WX    TMP DP  RH WIND       PRES   REMARKS
MEDFORD        NOT AVBL
WAUSAU         MOSUNNY   72  51  47 W15G22    29.90F
MOSINEE        SUNNY     70  55  60 W14       29.93F
MARSHFIELD     MOSUNNY   71  53  52 W14       29.94S
WISC RAPIDS    MOSUNNY   73  52  47 W13G21    29.96S
STEVENS POINT  NOT AVBL
WAUPACA        NOT AVBL
SHAWANO        NOT AVBL
CLINTONVILLE   PTSUNNY   73  54  49 W12G17    29.91S
$$

WIZ038-039-048-051-291500-
FOX VALLEY

CITY           SKY/WX    TMP DP  RH WIND       PRES   REMARKS
NWS GREEN BAY  PTSUNNY   77  58  51 W18G26    29.90F
APPLETON       MOSUNNY   73  57  56 W12G21    29.93F
OSHKOSH        PTSUNNY   76  59  55 W9        29.92F
FOND DU LAC    PTSUNNY   75  58  55 W13       29.93S
$$

WIZ022-050-052-291500-
EAST CENTRAL WISCONSIN

CITY           SKY/WX    TMP DP  RH WIND       PRES   REMARKS
STURGEON BAY   CLOUDY    75  57  53 W12       29.90F
MANITOWOC      NOT AVBL
SHEBOYGAN      CLOUDY    76  64  66 W7        29.92S
$$

LMZ563-521-522-541>543-291500-
LAKESHORE

STATION/POSITION TIME  TEMP    WIND        PRES    VSBY  WAVE
                       AIR SEA DIR/SP/G                  HT/PER
                 (UTC) (F)     (DEG/KT/KT) (MB)    (MI)  (FT/S)
SHEBOYGAN LKSHOR 1300   77     300/  9/ 12 1012.8R
KEWAUNEE LKSHORE 1300   76     280/  6/ 11 1011.6R
ALGOMA MARINA    1312          270/  6/ 13   N/A
NORTHPORT PIER   1300   76     280/  6/ 12 1010.8R
N MID LAKE BUOY  1250   72 69  220/ 14/ 17 1009.8R         3/ 4
S GREEN BAY BUOY 1300   75 74  250/ 16/ 19 1013.4R
CHAMBERS ISLAND  1300   75     220/  7/ 17 1011.2R
MENOMINEE LKSHOR 1300   75     260/ 12/ 20 1012.0R
$$


USA.gov is the U.S. government's official web portal to all federal, state and local government web resources and services.